Location: ???????
(55.4362°N, 38.1183°E)
Time: 13:44:10
(UTC+00:00)

Cosmos 2219 Rocket - Pass Details

Date: 29 October 2021
Orbit: 826 x 848 km, 71.0° (Epoch: 01 December)

Event Time Altitude Azimuth Distance (km) Brightness Sun altitude
Rises 18:37:38 0° 257° (WSW) 3,373 5.7 -38.8°
Reaches altitude 10° 18:40:24 10° 269° (W) 2,445 5.0 -39.1°
Enters shadow 18:43:33 24° 299° (WNW) 1,656 4.2 -39.5°
